Stations météo

Publicité
Vichy, France (7374): Température de l'air & dewpoint: 20.11.2020 00:00:00 - 26.11.2020 00:00:00 (CET)Vichy, France (7374): Température de l'air 5cm: 20.11.2020 00:00:00 - 26.11.2020 00:00:00 (CET)Vichy, France (7374): Vitesse du vent & gusts: 20.11.2020 00:00:00 - 26.11.2020 00:00:00 (CET)Vichy, France (7374): Direction du vent: 20.11.2020 00:00:00 - 26.11.2020 00:00:00 (CET)Vichy, France (7374): reduced air pressure: 20.11.2020 00:00:00 - 26.11.2020 00:00:00 (CET)Vichy, France (7374): visibility: 20.11.2020 00:00:00 - 26.11.2020 00:00:00 (CET)Vichy, France (7374): Ensoleillement: 20.11.2020 00:00:00 - 26.11.2020 00:00:00 (CET)Vichy, France (7374): Quantités de précipitations: 20.11.2020 00:00:00 - 26.11.2020 00:00:00 (CET)
Date & Time tt [°C] td [°C] tt 5cm [°C] ff [km/h] ff [knt] fx [km/h] fx [knt] dd ppp [hPa] vv [km] sd [min] rr [mm]
26.11.2020 00:00:00 - - - - - - - - - - - -
25.11.2020 23:00:00 10,8 4,9 6,0 18 10 31 17 SSE 1018,9 20 0 0,0
25.11.2020 22:00:00 9,6 4,4 3,2 9 5 19 10 S 1018,9 20 0 0,0
25.11.2020 21:00:00 8,5 4,7 1,4 7 4 14 8 S 1018,6 20 0 0,0
25.11.2020 20:00:00 9,4 4,4 4,7 6 4 24 13 S 1018,4 20 0 0,0
25.11.2020 19:00:00 10,6 4,7 3,3 14 7 26 14 S 1018,0 20 0 0,0
25.11.2020 18:00:00 10,1 4,7 3,5 7 4 16 9 S 1017,5 20 0 0,0
25.11.2020 17:00:00 12,6 5,5 10,0 11 6 30 16 S 1017,0 20 36 0,0
25.11.2020 16:00:00 15,1 6,1 14,9 17 9 30 16 SSE 1016,5 20 60 0,0
25.11.2020 15:00:00 16,4 5,9 18,0 12 7 23 13 SSE 1016,1 20 60 0,0
25.11.2020 14:00:00 16,3 5,8 19,0 15 8 31 17 S 1016,2 20 60 0,0
25.11.2020 13:00:00 15,3 6,3 15,8 20 11 34 18 SSE 1016,8 20 46 0,0
25.11.2020 12:00:00 14,9 6,2 12,1 18 10 31 17 S 1017,2 20 54 0,0
25.11.2020 11:00:00 7,5 4,4 8,9 4 2 12 7 NNE 1018,5 19 15 0,0
25.11.2020 10:00:00 5,0 2,5 3,2 4 2 11 6 NNE 1018,8 17 52 0,0
25.11.2020 09:00:00 2,3 0,8 -0,5 5 3 9 5 NNE 1019,0 19 33 0,0
25.11.2020 08:00:00 1,0 0,0 -1,2 4 2 6 3 N 1018,8 20 0 0,0
25.11.2020 07:00:00 0,9 -0,4 -1,6 3 2 7 4 NNE 1018,7 20 0 0,0
25.11.2020 06:00:00 2,5 0,1 -0,7 3 2 14 8 N 1018,4 20 0 0,0
25.11.2020 05:00:00 8,5 3,3 4,7 8 4 27 15 S 1017,6 20 0 0,0
25.11.2020 04:00:00 9,6 3,3 6,6 12 6 28 15 SSW 1017,6 20 0 0,0
25.11.2020 03:00:00 9,6 3,8 6,8 15 8 36 19 SSW 1017,8 20 0 0,0
25.11.2020 02:00:00 9,2 3,8 6,1 13 7 29 16 SSW 1017,8 20 0 0,0
25.11.2020 01:00:00 8,9 3,9 2,9 12 7 31 17 S 1018,3 20 0 0,0
25.11.2020 00:00:00 6,9 3,5 -1,9 10 5 21 12 S 1018,9 20 0 0,2
24.11.2020 23:00:00 0,1 -0,5 -2,2 3 2 8 4 SSW 1020,0 8 0 0,0
24.11.2020 22:00:00 0,0 -0,9 -1,5 4 2 14 8 WSW 1020,1 12 0 0,0
24.11.2020 21:00:00 0,9 0,0 -1,4 4 2 9 5 SW 1020,1 15 0 0,0
24.11.2020 20:00:00 1,7 0,8 -1,3 3 2 6 4 SW 1019,9 18 0 0,0
24.11.2020 19:00:00 2,5 1,2 -0,5 0 0 5 3 N 1020,0 20 0 0,0
24.11.2020 18:00:00 4,7 2,7 0,5 2 1 3 2 W 1019,7 20 0 0,0
24.11.2020 17:00:00 7,5 3,5 3,2 3 2 8 5 WNW 1019,5 20 10 0,0
24.11.2020 16:00:00 10,8 4,7 10,7 6 4 10 5 N 1019,3 20 39 0,0
24.11.2020 15:00:00 12,3 4,8 15,5 4 2 11 6 N 1019,9 20 60 0,0
24.11.2020 14:00:00 11,4 4,1 17,4 4 2 9 5 NE 1020,7 20 60 0,0
24.11.2020 13:00:00 10,8 2,9 14,3 2 1 10 5 SE 1021,7 19 60 0,0
24.11.2020 12:00:00 8,1 2,1 11,6 6 3 15 8 SSE 1023,2 20 60 0,0
24.11.2020 11:00:00 5,2 1,1 6,1 8 4 14 8 S 1024,8 20 60 0,0
24.11.2020 10:00:00 2,2 0,3 -0,3 9 5 15 8 S 1025,6 20 60 0,0
24.11.2020 09:00:00 -0,9 -1,5 -4,4 5 3 9 5 S 1026,4 13 34 0,0
24.11.2020 08:00:00 -2,7 -3,5 -5,0 6 3 11 6 SSW 1026,7 12 0 0,0
24.11.2020 07:00:00 -1,9 -2,6 -4,9 6 3 12 6 SSW 1026,7 17 0 0,0
24.11.2020 06:00:00 -2,4 -3,0 -5,1 6 4 11 6 SSW 1027,0 14 0 0,0
24.11.2020 05:00:00 -3,5 -4,3 -4,9 4 2 14 7 SSW 1027,6 8 0 0,0
24.11.2020 04:00:00 -2,8 -3,5 -4,8 6 3 10 6 SSW 1028,0 9 0 0,0
24.11.2020 03:00:00 -1,8 -2,4 -4,6 5 3 10 6 S 1028,7 13 0 0,0
24.11.2020 02:00:00 -2,2 -2,9 -4,4 5 3 10 5 SSW 1029,3 9 0 0,0
24.11.2020 01:00:00 -1,8 -2,4 -4,0 5 3 11 6 S 1029,5 9 0 0,0
24.11.2020 00:00:00 -1,9 -2,6 -3,8 2 1 7 4 SW 1030,3 7 0 0,0
23.11.2020 23:00:00 -1,6 -2,4 -3,7 2 1 3 2 WSW 1030,5 7 0 0,0
23.11.2020 22:00:00 -0,7 -1,5 -3,2 2 1 4 2 W 1030,6 10 0 0,0
23.11.2020 21:00:00 -0,2 -1,2 -2,6 0 0 3 2 N 1030,4 10 0 0,0
23.11.2020 20:00:00 0,7 -0,5 -1,9 3 1 3 2 W 1030,3 13 0 0,0
23.11.2020 19:00:00 1,8 0,0 -1,2 2 1 5 3 WNW 1030,1 12 0 0,0
23.11.2020 18:00:00 3,6 0,6 -0,3 3 2 5 3 WNW 1029,4 20 0 0,0
23.11.2020 17:00:00 7,1 0,7 2,6 0 0 11 6 N 1029,0 20 34 0,0
23.11.2020 16:00:00 9,3 1,4 9,5 7 4 14 7 N 1028,9 20 46 0,0
23.11.2020 15:00:00 9,8 1,2 12,2 8 5 16 9 NNE 1028,8 20 54 0,0
23.11.2020 14:00:00 10,4 0,1 13,7 6 4 10 5 NNE 1029,1 20 51 0,0
23.11.2020 13:00:00 10,8 -2,3 15,0 3 2 10 5 NE 1029,4 20 60 0,0
23.11.2020 12:00:00 8,4 -0,1 11,8 6 3 13 7 S 1030,3 20 60 0,0
23.11.2020 11:00:00 5,1 -0,9 6,5 10 5 19 10 S 1031,1 20 60 0,2
23.11.2020 10:00:00 2,3 -1,7 0,9 8 4 18 10 S 1031,4 20 60 0,0
23.11.2020 09:00:00 -0,1 -2,0 -4,0 7 4 15 8 SSW 1031,3 20 36 0,0
23.11.2020 08:00:00 -2,2 -3,5 -4,9 6 3 15 8 SSW 1031,2 19 0 0,0
23.11.2020 07:00:00 -2,9 -4,0 -4,7 4 2 10 5 S 1031,0 12 0 0,0
23.11.2020 06:00:00 -1,4 -2,8 -4,2 6 3 14 8 SSW 1030,7 20 0 0,0
23.11.2020 05:00:00 -2,0 -3,3 -4,2 8 4 14 8 S 1030,5 14 0 0,0
23.11.2020 04:00:00 -1,3 -2,6 -4,1 6 4 14 7 SSW 1030,6 19 0 0,0
23.11.2020 03:00:00 -2,2 -3,0 -4,2 6 3 11 6 SSW 1030,9 12 0 0,0
23.11.2020 02:00:00 -2,2 -3,3 -3,8 4 2 15 8 SSW 1030,7 10 0 0,0
23.11.2020 01:00:00 -1,7 -2,3 -4,1 7 4 12 6 SW 1031,0 10 0 0,0
23.11.2020 00:00:00 -2,0 -2,7 -4,2 2 1 11 6 WSW 1030,8 10 0 0,0
22.11.2020 23:00:00 -1,8 -2,5 -3,8 3 1 4 2 S 1030,9 10 0 0,0
22.11.2020 22:00:00 -1,6 -2,4 -3,3 0 0 6 3 N 1030,9 10 0 0,0
22.11.2020 21:00:00 -0,7 -1,8 -3,0 4 2 8 5 SSW 1030,4 14 0 0,0
22.11.2020 20:00:00 -0,3 -1,7 -2,3 3 1 6 3 WSW 1030,0 14 0 0,0
22.11.2020 19:00:00 1,3 -0,3 -1,9 5 3 8 4 W 1029,6 13 0 0,0
22.11.2020 18:00:00 2,9 -0,2 -1,2 2 1 9 5 NNW 1029,3 20 0 0,0
22.11.2020 17:00:00 7,3 0,0 2,0 4 2 9 5 N 1028,2 20 37 0,0
22.11.2020 16:00:00 10,0 -0,8 11,3 3 2 7 4 N 1027,6 20 60 0,0
22.11.2020 15:00:00 11,0 0,1 14,7 3 1 12 6 SSW 1027,6 20 60 0,0
22.11.2020 14:00:00 9,2 0,9 15,1 5 3 10 6 SE 1028,5 20 60 0,0
22.11.2020 13:00:00 8,1 0,1 12,9 0 0 9 5 N 1029,6 20 60 0,0
22.11.2020 12:00:00 6,0 -0,3 9,7 3 2 11 6 SE 1030,6 20 60 0,0
22.11.2020 11:00:00 3,3 -0,7 1,9 5 3 10 6 S 1031,2 20 60 0,2
22.11.2020 10:00:00 -0,3 -1,1 -1,8 2 1 7 4 SSE 1031,9 17 10 0,0
22.11.2020 09:00:00 -1,8 -2,4 -4,5 0 0 4 2 N 1031,9 16 28 0,0
22.11.2020 08:00:00 -3,4 -4,1 -4,9 0 0 6 4 N 1031,8 12 0 0,0
22.11.2020 07:00:00 -3,4 -4,4 -5,3 3 2 10 5 WSW 1031,9 12 0 0,0
22.11.2020 06:00:00 -2,4 -3,2 -5,0 6 3 11 6 SSW 1031,8 16 0 0,0
22.11.2020 05:00:00 -1,7 -2,5 -3,6 6 4 16 8 S 1031,7 18 0 0,0
22.11.2020 04:00:00 -1,5 -2,2 -3,9 9 5 18 10 SSW 1031,6 16 0 0,0
22.11.2020 03:00:00 -1,8 -2,4 -4,8 7 4 14 8 S 1031,7 15 0 0,0
22.11.2020 02:00:00 -3,1 -3,9 -4,8 4 2 11 6 SW 1032,4 10 0 0,0
22.11.2020 01:00:00 -1,6 -2,3 -3,7 6 3 16 8 SSW 1032,7 11 0 0,0
22.11.2020 00:00:00 -0,8 -1,4 -4,1 8 4 13 7 S 1032,7 12 0 0,0
21.11.2020 23:00:00 -1,9 -2,5 -4,0 5 3 9 5 SSW 1033,4 9 0 0,0
21.11.2020 22:00:00 -2,0 -2,7 -3,9 4 2 8 4 SW 1033,8 10 0 0,0
21.11.2020 21:00:00 -1,1 -1,8 -3,2 0 0 5 3 N 1033,8 14 0 0,0
21.11.2020 20:00:00 -0,8 -1,6 -2,9 3 1 4 2 WSW 1033,8 16 0 0,0
21.11.2020 19:00:00 0,3 -1,0 -2,1 0 0 4 2 N 1033,6 19 0 0,0
21.11.2020 18:00:00 1,9 -0,5 -1,2 3 1 4 2 NNW 1033,1 20 0 0,0
21.11.2020 17:00:00 5,0 -0,2 1,2 3 2 6 4 N 1032,5 20 42 0,0
21.11.2020 16:00:00 7,6 0,8 9,0 3 1 18 10 NE 1032,6 20 60 0,0
21.11.2020 15:00:00 7,2 0,6 10,8 10 5 19 11 SE 1032,7 20 60 0,0
21.11.2020 14:00:00 6,4 0,9 9,5 12 6 23 12 SSE 1033,5 20 60 0,0
21.11.2020 13:00:00 4,9 0,8 8,3 17 9 25 13 SSE 1034,7 19 60 0,0
21.11.2020 12:00:00 4,0 0,9 8,0 14 8 21 11 SSE 1035,6 19 60 0,0
21.11.2020 11:00:00 1,9 -0,2 3,7 13 7 19 10 SSE 1036,3 18 60 0,0
21.11.2020 10:00:00 -0,1 -1,4 -1,8 0 0 8 4 N 1036,5 18 60 0,0
21.11.2020 09:00:00 -3,1 -3,8 -6,3 0 0 5 3 N 1036,9 17 36 0,0
21.11.2020 08:00:00 -4,8 -5,5 -6,6 0 0 10 5 N 1037,0 17 0 0,0
21.11.2020 07:00:00 -4,6 -5,3 -6,2 3 1 5 3 W 1037,1 17 0 0,0
21.11.2020 06:00:00 -4,5 -5,2 -5,9 2 1 3 2 W 1036,7 16 0 0,0
21.11.2020 05:00:00 -4,0 -4,5 -6,1 2 1 5 3 WNW 1036,5 13 0 0,0
21.11.2020 04:00:00 -3,6 -4,1 -5,5 3 1 7 4 SW 1036,6 12 0 0,0
21.11.2020 03:00:00 -3,1 -3,6 -5,3 4 2 8 4 WSW 1036,8 13 0 0,0
21.11.2020 02:00:00 -2,8 -3,3 -4,9 2 1 6 3 W 1037,1 15 0 0,0
21.11.2020 01:00:00 -2,4 -3,0 -4,1 3 1 4 2 WNW 1037,2 14 0 0,0
21.11.2020 00:00:00 -2,0 -2,6 -3,8 2 1 4 2 S 1037,2 17 0 0,0
20.11.2020 23:00:00 -1,7 -2,4 -3,5 2 1 5 3 WNW 1037,2 17 0 0,0
20.11.2020 22:00:00 -1,3 -2,0 -3,2 0 0 3 2 N 1037,1 17 0 0,0
20.11.2020 21:00:00 -0,4 -1,2 -2,7 3 2 4 2 WNW 1036,7 17 0 0,0
20.11.2020 20:00:00 0,5 -0,6 -2,2 2 1 3 2 WNW 1036,8 20 0 0,0
20.11.2020 19:00:00 2,0 0,1 -1,6 0 0 6 3 N 1036,7 20 0 0,0
20.11.2020 18:00:00 4,2 0,2 0,3 4 2 15 8 NNE 1036,3 20 0 0,0
20.11.2020 17:00:00 6,6 0,3 3,5 8 5 27 15 N 1035,7 20 0 0,0
20.11.2020 16:00:00 8,0 0,7 7,2 16 9 31 17 N 1035,2 20 17 0,0
20.11.2020 15:00:00 8,8 2,4 9,3 18 10 29 16 N 1035,1 20 15 0,0
20.11.2020 14:00:00 8,9 3,3 8,6 18 10 29 16 N 1035,2 20 37 0,0
20.11.2020 13:00:00 8,7 4,3 8,9 14 7 28 15 N 1035,5 20 26 0,0
20.11.2020 12:00:00 8,3 4,5 8,9 16 9 27 15 N 1036,1 20 29 0,0
20.11.2020 11:00:00 6,9 4,9 7,8 10 5 23 12 N 1036,4 20 0 0,0
20.11.2020 10:00:00 6,5 5,1 6,4 11 6 23 12 N 1036,1 19 0 0,0
20.11.2020 09:00:00 5,9 4,9 5,5 8 4 16 9 NNW 1036,0 15 0 0,0
20.11.2020 08:00:00 5,6 4,6 5,4 6 4 14 7 NNW 1035,8 20 0 0,2
20.11.2020 07:00:00 5,6 3,9 5,3 8 4 16 9 N 1035,6 11 0 0,2
20.11.2020 06:00:00 5,7 3,7 5,1 5 3 11 6 WNW 1035,2 20 0 0,0
20.11.2020 05:00:00 6,0 3,5 5,2 5 3 18 10 NNW 1035,1 20 0 0,0
20.11.2020 04:00:00 6,1 3,6 5,1 5 3 14 8 NW 1035,2 20 0 0,0
20.11.2020 03:00:00 6,1 3,6 4,3 5 3 13 7 NW 1035,3 20 0 0,0
20.11.2020 02:00:00 5,7 3,5 1,7 4 2 16 9 NE 1035,6 20 0 0,0
20.11.2020 01:00:00 3,0 2,1 -0,6 2 1 6 4 WNW 1036,1 20 0 0,0
20.11.2020 00:00:00 3,8 1,8 0,3 2 1 21 12 NW 1035,6 20 0 0,0

tt = Température de l'air
td = dewpoint
tt 5cm = Température de l'air 5cm
ff = Vitesse du vent
fx = gusts
dd = Direction du vent
ppp = reduced air pressure
vv = visibility
sd = Ensoleillement
rr = Quantités de précipitations

stations d'obs. à proximité